Storm Lake, IA

2:35 AM CDT on April 26, 2017 (GMT -0500)
Storm Lake Municipal

Weather History for KSLB - February, 2013

Change the Weather History Date:

Thursday, February 21, 2013

  Actual Average Record
Temperature  
Mean Temperature 18 °F -  
Max Temperature 24 °F 33 °F 64 °F (2017)
Min Temperature 12 °F 19 °F -2 °F (2001)
Degree Days  
Heating Degree Days 47    
Moisture  
Dew Point 12 °F    
Average Humidity 75    
Maximum Humidity 93    
Minimum Humidity 50    
Precipitation  
Precipitation 0.00 in - - ()
Sea Level Pressure  
Sea Level Pressure 30.07 in    
Wind  
Wind Speed 17 mph (ENE)    
Max Wind Speed 28 mph    
Max Gust Speed 36 mph    
Visibility 7 miles    
Events Snow    
Averages and records for this station are not official NWS values.
T = Trace of Precipitation, MM = Missing Value Source: NWS Daily Summary

Daily Weather History Graph

Daily Weather History Graph

Search for Another Location

Airport or City:

Trip Planner

Search our weather history database for the weather conditions in past years. The results will help you decide how hot, cold, wet, or windy it might be!

Date:

Astronomy

Feb. 21, 2013 Rise Set
Actual Time 7:08 AM CST 6:01 PM CST
Civil Twilight 6:40 AM CST 6:29 PM CST
Nautical Twilight 6:07 AM CST 7:02 PM CST
Astronomical Twilight 5:34 AM CST 7:35 PM CST
Moon 2:13 PM CST (2/21) 4:17 AM CST (2/21)
Length of Visible Light 11h 49m
Length of Day
10h 52m
Waxing Gibbous, 84% of the Moon is Illuminated
Feb 21
Waxing Gibbous
Feb 25
Full
Mar 4
Last Quarter
Mar 11
New
Mar 19
First Quarter

Hourly Weather History & Observations

Time (CST) Temp. Windchill Dew Point Humidity Pressure Visibility Wind Dir Wind Speed Gust Speed Precip Events Conditions
12:15 AM 17.6 °F 5.7 °F 8.6 °F 68% 30.26 in 10.0 mi ESE 10.4 mph - N/A   Overcast
12:35 AM 17.6 °F 5.7 °F 8.6 °F 68% 30.26 in 10.0 mi ESE 10.4 mph - N/A   Overcast
12:55 AM 17.6 °F 4.3 °F 8.6 °F 68% 30.26 in 10.0 mi ESE 12.7 mph - N/A   Overcast
1:15 AM 17.6 °F 5.0 °F 10.4 °F 73% 30.25 in 10.0 mi ESE 11.5 mph - N/A   Overcast
1:35 AM 17.6 °F 5.0 °F 10.4 °F 73% 30.24 in 10.0 mi East 11.5 mph - N/A   Overcast
1:55 AM 17.6 °F 3.7 °F 10.4 °F 73% 30.24 in 10.0 mi East 13.8 mph - N/A   Overcast
2:15 AM 17.6 °F 3.7 °F 10.4 °F 73% 30.24 in 10.0 mi East 13.8 mph - N/A   Overcast
2:35 AM 17.6 °F 4.3 °F 10.4 °F 73% 30.23 in 10.0 mi East 12.7 mph - N/A   Overcast
2:55 AM 15.8 °F 1.4 °F 10.4 °F 79% 30.21 in 10.0 mi East 13.8 mph - N/A   Overcast
3:15 AM 15.8 °F 0.9 °F 10.4 °F 79% 30.21 in 10.0 mi East 15.0 mph - N/A   Overcast
3:35 AM 15.8 °F 0.3 °F 10.4 °F 79% 30.16 in 10.0 mi East 16.1 mph - N/A   Scattered Clouds
3:55 AM 14.0 °F -0.2 °F 10.4 °F 86% 30.16 in 10.0 mi East 12.7 mph 18.4 mph N/A   Clear
4:15 AM 14.0 °F - 10.4 °F 86% 30.20 in 10.0 mi North - - N/A   Clear
4:35 AM 14.0 °F 2.0 °F 10.4 °F 86% 30.20 in 10.0 mi ESE 9.2 mph - N/A   Scattered Clouds
4:55 AM 14.0 °F -0.2 °F 10.4 °F 86% 30.21 in 10.0 mi ESE 12.7 mph - N/A   Partly Cloudy
5:15 AM 14.0 °F -0.2 °F 10.4 °F 86% 30.18 in 10.0 mi ENE 12.7 mph - N/A   Mostly Cloudy
5:55 AM 14.0 °F -1.4 °F 8.6 °F 79% 30.17 in 10.0 mi East 15.0 mph - N/A   Partly Cloudy
6:15 AM 14.0 °F -1.4 °F 8.6 °F 79% 30.15 in 10.0 mi ENE 15.0 mph - N/A   Clear
6:35 AM 12.2 °F -2.5 °F 8.6 °F 85% 30.18 in 10.0 mi ENE 12.7 mph - N/A   Clear
6:55 AM 12.2 °F -2.5 °F 8.6 °F 85% 30.18 in 10.0 mi ENE 12.7 mph - N/A   Clear
7:15 AM 14.0 °F 0.5 °F 8.6 °F 79% 30.17 in 10.0 mi ENE 11.5 mph - N/A   Clear
7:35 AM 14.0 °F -0.8 °F 8.6 °F 79% 30.18 in 10.0 mi ENE 13.8 mph - N/A   Clear
7:55 AM 14.0 °F -0.8 °F 10.4 °F 86% 30.18 in 10.0 mi East 13.8 mph - N/A   Partly Cloudy
8:15 AM 14.0 °F -2.5 °F 10.4 °F 86% 30.16 in 10.0 mi East 17.3 mph - N/A   Mostly Cloudy
8:35 AM 15.8 °F -0.6 °F 10.4 °F 79% 30.16 in 10.0 mi East 18.4 mph - N/A   Scattered Clouds
8:55 AM 15.8 °F 0.3 °F 8.6 °F 73% 30.17 in 10.0 mi East 16.1 mph - N/A   Mostly Cloudy
9:15 AM 17.6 °F 2.2 °F 8.6 °F 68% 30.17 in 10.0 mi East 17.3 mph 24.2 mph N/A   Overcast
9:35 AM 17.6 °F 0.9 °F 8.6 °F 68% 30.18 in 10.0 mi East 20.7 mph - N/A   Overcast
9:55 AM 17.6 °F 0.1 °F 8.6 °F 68% 30.18 in 10.0 mi ESE 23.0 mph - N/A   Overcast
10:15 AM 19.4 °F 3.2 °F 8.6 °F 63% 30.17 in 10.0 mi ESE 20.7 mph 28.8 mph N/A   Overcast
10:35 AM 19.4 °F 3.6 °F 8.6 °F 63% 30.16 in 10.0 mi East 19.6 mph 26.5 mph N/A   Overcast
10:55 AM 21.2 °F 5.2 °F 8.6 °F 58% 30.14 in 10.0 mi East 21.9 mph 27.6 mph N/A   Overcast
11:15 AM 21.2 °F 5.2 °F 8.6 °F 58% 30.13 in 10.0 mi East 21.9 mph 28.8 mph N/A   Mostly Cloudy
11:35 AM 23.0 °F 7.2 °F 8.6 °F 54% 30.11 in 10.0 mi East 23.0 mph - N/A   Mostly Cloudy
11:55 AM 23.0 °F 7.2 °F 8.6 °F 54% 30.10 in 10.0 mi East 23.0 mph 28.8 mph N/A   Mostly Cloudy
12:15 PM 23.0 °F 7.6 °F 8.6 °F 54% 30.09 in 10.0 mi East 21.9 mph 27.6 mph N/A   Scattered Clouds
12:35 PM 23.0 °F 8.0 °F 8.6 °F 54% 30.08 in 10.0 mi East 20.7 mph 27.6 mph N/A   Clear
12:55 PM 23.0 °F 7.6 °F 8.6 °F 54% 30.07 in 10.0 mi East 21.9 mph 28.8 mph N/A   Clear
1:15 PM 24.8 °F 9.3 °F 8.6 °F 50% 30.04 in 10.0 mi East 24.2 mph - N/A   Clear
1:35 PM 24.8 °F 9.6 °F 8.6 °F 50% 30.03 in 10.0 mi East 23.0 mph 28.8 mph N/A   Partly Cloudy
1:55 PM 24.8 °F 9.3 °F 8.6 °F 50% 30.02 in 10.0 mi East 24.2 mph 29.9 mph N/A   Clear
2:15 PM 24.8 °F 10.3 °F 8.6 °F 50% 30.03 in 10.0 mi East 20.7 mph 29.9 mph N/A   Partly Cloudy
2:35 PM 24.8 °F 10.0 °F 8.6 °F 50% 30.02 in - East 21.9 mph 28.8 mph N/A   Mostly Cloudy
2:55 PM 24.8 °F 9.0 °F 8.6 °F 50% 30.02 in 10.0 mi East 25.3 mph - N/A   Overcast
3:15 PM 24.8 °F 10.0 °F 10.4 °F 54% 30.01 in 10.0 mi ENE 21.9 mph 31.1 mph N/A   Overcast
3:35 PM 24.8 °F 9.3 °F 10.4 °F 54% 29.99 in 10.0 mi ENE 24.2 mph 32.2 mph N/A   Overcast
3:55 PM 24.8 °F 9.0 °F 10.4 °F 54% 29.99 in 10.0 mi East 25.3 mph - N/A   Mostly Cloudy
4:15 PM 24.8 °F 10.0 °F 12.2 °F 59% 29.98 in 10.0 mi ENE 21.9 mph 28.8 mph N/A   Mostly Cloudy
4:35 PM 23.0 °F 7.2 °F 14.0 °F 68% 29.98 in 2.0 mi ENE 23.0 mph 33.4 mph N/A Snow Light Snow
4:55 PM 23.0 °F 6.3 °F 14.0 °F 68% 29.98 in 1.5 mi ENE 26.5 mph 33.4 mph N/A Snow Light Snow
5:15 PM 21.2 °F 4.5 °F 15.8 °F 80% 29.97 in 0.8 mi ENE 24.2 mph - N/A Snow Light Snow
5:35 PM 21.2 °F 4.9 °F 17.6 °F 86% 29.96 in 0.5 mi ENE 23.0 mph 28.8 mph N/A Snow Light Snow
5:55 PM 21.2 °F 5.2 °F 17.6 °F 86% 29.95 in 0.8 mi ENE 21.9 mph 28.8 mph N/A Snow Light Snow
6:15 PM 21.2 °F 5.2 °F 17.6 °F 86% 29.95 in 0.5 mi ENE 21.9 mph 29.9 mph N/A Snow Light Snow
6:35 PM 19.4 °F 2.5 °F 17.6 °F 93% 29.94 in 1.0 mi ENE 23.0 mph 28.8 mph N/A Snow Light Snow
6:55 PM 19.4 °F 2.8 °F 17.6 °F 93% 29.95 in 1.8 mi ENE 21.9 mph 31.1 mph N/A Snow Light Snow
7:15 PM 19.4 °F 1.1 °F 17.6 °F 93% 29.94 in 0.8 mi ENE 27.6 mph - N/A Snow Light Snow
7:35 PM 19.4 °F 2.1 °F 17.6 °F 93% 29.93 in 0.5 mi ENE 24.2 mph 31.1 mph N/A Snow Light Snow
7:55 PM 19.4 °F 1.4 °F 17.6 °F 93% 29.93 in 0.5 mi ENE 26.5 mph 35.7 mph N/A Snow Light Snow
8:15 PM 19.4 °F 2.8 °F 17.6 °F 93% 29.93 in 0.5 mi ENE 21.9 mph 27.6 mph N/A Snow Light Snow
8:35 PM 19.4 °F 1.8 °F 15.8 °F 86% 29.93 in 0.8 mi ENE 25.3 mph 31.1 mph N/A Snow Light Snow
8:55 PM 17.6 °F -0.3 °F 15.8 °F 93% 29.92 in 0.8 mi ENE 24.2 mph - N/A Snow Light Snow
9:15 PM 17.6 °F 0.5 °F 15.8 °F 93% 29.92 in 0.8 mi ENE 21.9 mph 31.1 mph N/A Snow Light Snow
9:35 PM 17.6 °F -0.3 °F 15.8 °F 93% 29.91 in 0.8 mi ENE 24.2 mph - N/A Snow Light Snow
9:55 PM 17.6 °F -0.3 °F 15.8 °F 93% 29.90 in 1.0 mi ENE 24.2 mph 32.2 mph N/A Snow Light Snow
10:15 PM 17.6 °F 0.5 °F 15.8 °F 93% 29.90 in 1.5 mi NE 21.9 mph 28.8 mph N/A Snow Light Snow
10:35 PM 17.6 °F 0.5 °F 15.8 °F 93% 29.89 in 1.5 mi NE 21.9 mph 28.8 mph N/A Snow Light Snow
10:55 PM 17.6 °F 1.7 °F 15.8 °F 93% 29.89 in 1.5 mi NE 18.4 mph 25.3 mph N/A Snow Light Snow
11:15 PM 17.6 °F 0.9 °F 15.8 °F 93% 29.88 in 1.8 mi ENE 20.7 mph 27.6 mph N/A Snow Light Snow
11:35 PM 17.6 °F 0.9 °F 15.8 °F 93% 29.87 in 3.0 mi NE 20.7 mph - N/A Snow Light Snow
11:55 PM 17.6 °F 0.9 °F 15.8 °F 93% 29.86 in 0.8 mi NE 20.7 mph 26.5 mph N/A Snow Light Snow